NVS-02 (IRNSS-1K) (62850 NORAD) Tracking and Keplerian Element Data

This shows tracking and keplerian element data for the satellite.

Feedback or suggestion? Click here.




ElementValue
Catalog62850
NameNVS-02 (IRNSS-1K)
Epoch Orbit12
Epoch Day34.35368094
Epoch Year2025
RAAN80.8835
Inclination20.7711
Eccentricity0.7407473
Argument of Perigee181.6188
Mean Anonmoly172.7438
Mean Motion2.16497932
Decay Rate0.00023189
L11 62850U 25020A 25034.35368094 .00023189 49340-8 68295-3 0 9996
L22 62850 20.7711 80.8835 7407473 181.6188 172.7438 2.16497932 126



Live tracking and technical data element details for NVS-02 (IRNSS-1K) (NORAD 62850). NVS-02 (IRNSS-1K) can be tracked NOW for your location showing map with azimuth and elevation plus other details from your city location.







IsCatalogInMostPopularTable: catalog: 62850, numindb: 2
Update: records affected: 1



GetName: 62850 NVS-02 (IRNSS-1K)

Hit Count: updated at: Sun, 09 Feb 2025 14:50:51 GMT